,,,PA_Meas_PMT16A,,PR_Meas_QMR101_102,,RH_Meas_QMH101,,SR_Meas_QMS101,,TA_Meas_QMH101,,GenWind,,GenWind,
date,time,status,PA,status,PR,status,RH,status,SR,status,TA,status,DirAvg,status,SpdAvg,
2012-08-18, 00:00:05,VALID,1000.62,VALID,0,VALID,82.0642,VALID,0,VALID,24.1696,VALID,137,VALID,1.2082,
2012-08-18, 00:01:05,VALID,1000.59,VALID,0,VALID,82.2168,VALID,0,VALID,24.1305,VALID,150,VALID,1.0918,
2012-08-18, 00:02:05,VALID,1000.6,VALID,0,VALID,82.2778,VALID,0,VALID,24.15,VALID,136,VALID,0.8,
2012-08-18, 00:03:05,VALID,1000.62,VALID,0,VALID,82.2015,VALID,0,VALID,24.1305,VALID,148,VALID,0.932422,
2012-08-18, 00:04:05,VALID,1000.59,VALID,0,VALID,82.2473,VALID,0,VALID,24.15,VALID,166,VALID,1.31406,
2012-08-18, 00:05:05,VALID,1000.58,VALID,0,VALID,82.0566,VALID,0,VALID,24.1891,VALID,163,VALID,1.14102,
2012-08-18, 00:06:05,VALID,1000.57,VALID,0,VALID,81.8506,VALID,0,VALID,24.2086,VALID,139,VALID,1.55469,
2012-08-18, 00:07:05,VALID,1000.56,VALID,0,VALID,81.8735,VALID,0,VALID,24.2086,VALID,151,VALID,1.88555,
2012-08-18, 00:08:05,VALID,1000.55,VALID,0,VALID,81.965,VALID,0,VALID,24.2281,VALID,162,VALID,1.95898,
2012-08-18, 00:09:05,VALID,1000.53,VALID,0,VALID,81.7666,VALID,0,VALID,24.2671,VALID,159,VALID,1.79922,
2012-08-18, 00:10:05,VALID,1000.53,VALID,0,VALID,81.6064,VALID,0,VALID,24.3062,VALID,151,VALID,2.08203,
2012-08-18, 00:11:05,VALID,1000.49,VALID,0,VALID,81.4843,VALID,0,VALID,24.2848,VALID,148,VALID,1.88359,
2012-08-18, 00:12:05,VALID,1000.5,VALID,0,VALID,81.4767,VALID,0,VALID,24.3062,VALID,159,VALID,2.3832,
2012-08-18, 00:13:05,VALID,1000.53,VALID,0,VALID,81.347,VALID,0,VALID,24.3452,VALID,149,VALID,2.16211,
2012-08-18, 00:14:05,VALID,1000.54,VALID,0,VALID,81.1181,VALID,0,VALID,24.4037,VALID,153,VALID,2.63516,
2012-08-18, 00:15:05,VALID,1000.52,VALID,0,VALID,80.7061,VALID,0,VALID,24.4409,VALID,148,VALID,2.15664,
2012-08-18, 00:16:05,VALID,1000.51,VALID,0,VALID,80.6909,VALID,0,VALID,24.4837,VALID,155,VALID,2.41484,
2012-08-18, 00:17:05,VALID,1000.51,VALID,0,VALID,80.5306,VALID,0,VALID,24.4623,VALID,142,VALID,1.95,
2012-08-18, 00:18:05,VALID,1000.48,VALID,0,VALID,80.5383,VALID,0,VALID,24.4428,VALID,144,VALID,1.74375,
2012-08-18, 00:19:05,VALID,1000.44,VALID,0,VALID,80.7061,VALID,0,VALID,24.4233,VALID,152,VALID,1.68711,
2012-08-18, 00:20:05,VALID,1000.48,VALID,0,VALID,80.7443,VALID,0,VALID,24.4037,VALID,158,VALID,1.77188,
2012-08-18, 00:21:05,VALID,1000.49,VALID,0,VALID,80.7672,VALID,0,VALID,24.4428,VALID,167,VALID,2.05977,
2012-08-18, 00:22:05,VALID,1000.45,VALID,0,VALID,80.5688,VALID,0,VALID,24.4818,VALID,165,VALID,1.99805,
2012-08-18, 00:23:05,VALID,1000.45,VALID,0,VALID,80.2941,VALID,0,VALID,24.5404,VALID,179,VALID,1.52617,
2012-08-18, 00:24:05,VALID,1000.45,VALID,0,VALID,80.0881,VALID,0,VALID,24.5599,VALID,156,VALID,1.84687,
2012-08-18, 00:25:05,VALID,1000.44,VALID,0,VALID,79.9813,VALID,0,VALID,24.5404,VALID,155,VALID,1.39531,
2012-08-18, 00:26:05,VALID,1000.42,VALID,0,VALID,80.0652,VALID,0,VALID,24.5209,VALID,163,VALID,1.40625,
2012-08-18, 00:27:05,VALID,1000.43,VALID,0,VALID,80.1568,VALID,0,VALID,24.5209,VALID,169,VALID,1.71797,
2012-08-18, 00:28:05,VALID,1000.38,VALID,0,VALID,80.2636,VALID,0,VALID,24.5209,VALID,155,VALID,2.18789,
2012-08-18, 00:29:05,VALID,1000.37,VALID,0,VALID,80.256,VALID,0,VALID,24.5013,VALID,146,VALID,1.96367,
2012-08-18, 00:30:05,VALID,1000.32,VALID,0,VALID,80.3246,VALID,0,VALID,24.4818,VALID,154,VALID,1.93594,
2012-08-18, 00:31:05,VALID,1000.27,VALID,0,VALID,80.4849,VALID,0,VALID,24.4428,VALID,137,VALID,1.93438,
2012-08-18, 00:32:05,VALID,1000.25,VALID,0,VALID,80.6756,VALID,0,VALID,24.4233,VALID,140,VALID,1.65234,
2012-08-18, 00:33:05,VALID,1000.25,VALID,0,VALID,80.7977,VALID,0,VALID,24.4037,VALID,135,VALID,1.625,
2012-08-18, 00:34:05,VALID,1000.23,VALID,0,VALID,80.8511,VALID,0,VALID,24.3647,VALID,140,VALID,1.64883,
2012-08-18, 00:35:05,VALID,1000.21,VALID,0,VALID,81.1029,VALID,0,VALID,24.3257,VALID,146,VALID,2.24648,
2012-08-18, 00:36:05,VALID,1000.25,VALID,0,VALID,81.1639,VALID,0,VALID,24.3257,VALID,151,VALID,1.93789,
2012-08-18, 00:37:05,VALID,1000.24,VALID,0,VALID,81.1181,VALID,0,VALID,24.3257,VALID,139,VALID,2.01797,
2012-08-18, 00:38:05,VALID,1000.21,VALID,0,VALID,81.1868,VALID,0,VALID,24.3062,VALID,138,VALID,2.2793,
2012-08-18, 00:39:05,VALID,1000.22,VALID,0,VALID,81.141,VALID,0,VALID,24.2866,VALID,140,VALID,2.17188,
2012-08-18, 00:40:05,VALID,1000.24,VALID,0,VALID,81.2707,VALID,0,VALID,24.2866,VALID,142,VALID,2.02148,
2012-08-18, 00:41:05,VALID,1000.24,VALID,0,VALID,81.2402,VALID,0,VALID,24.2866,VALID,140,VALID,1.5457,
2012-08-18, 00:42:05,VALID,1000.24,VALID,0,VALID,81.3012,VALID,0,VALID,24.2671,VALID,151,VALID,1.46836,
2012-08-18, 00:43:05,VALID,1000.27,VALID,0,VALID,81.1029,VALID,0,VALID,24.3062,VALID,153,VALID,2.04141,
2012-08-18, 00:44:05,VALID,1000.25,VALID,0,VALID,80.8663,VALID,0,VALID,24.3452,VALID,146,VALID,2.14258,
2012-08-18, 00:45:05,VALID,1000.26,VALID,0,VALID,80.3628,VALID,0,VALID,24.4037,VALID,147,VALID,1.89844,
2012-08-18, 00:46:05,VALID,1000.29,VALID,0,VALID,79.5388,VALID,0,VALID,24.4428,VALID,146,VALID,1.99766,
2012-08-18, 00:47:05,VALID,1000.29,VALID,0,VALID,79.1802,VALID,0,VALID,24.5209,VALID,143,VALID,1.42539,
2012-08-18, 00:48:05,VALID,1000.27,VALID,0,VALID,79.1039,VALID,0,VALID,24.5599,VALID,149,VALID,1.86289,
2012-08-18, 00:49:05,VALID,1000.27,VALID,0,VALID,79.0658,VALID,0,VALID,24.5794,VALID,148,VALID,1.91758,
2012-08-18, 00:50:05,VALID,1000.25,VALID,0,VALID,79.2031,VALID,0,VALID,24.5794,VALID,141,VALID,1.62734,
2012-08-18, 00:51:05,VALID,1000.25,VALID,0,VALID,79.4243,VALID,0,VALID,24.5209,VALID,147,VALID,1.29531,
2012-08-18, 00:52:05,VALID,1000.23,VALID,0,VALID,79.6151,VALID,0,VALID,24.5013,VALID,146,VALID,1.31562,
2012-08-18, 00:53:05,VALID,1000.2,VALID,0,VALID,79.7677,VALID,0,VALID,24.4818,VALID,146,VALID,1.17188,
2012-08-18, 00:54:05,VALID,1000.18,VALID,0,VALID,79.9279,VALID,0,VALID,24.4623,VALID,147,VALID,1.11055,
2012-08-18, 00:55:05,VALID,1000.19,VALID,0,VALID,79.966,VALID,0,VALID,24.4604,VALID,148,VALID,1.03203,
2012-08-18, 00:56:05,VALID,1000.2,VALID,0,VALID,79.9508,VALID,0,VALID,24.48,VALID,144,VALID,1.26875,
2012-08-18, 00:57:05,VALID,1000.21,VALID,0,VALID,79.9355,VALID,0,VALID,24.4818,VALID,140,VALID,1.2,
2012-08-18, 00:58:05,VALID,1000.18,VALID,0,VALID,80.0423,VALID,0,VALID,24.4623,VALID,141,VALID,1.29531,
2012-08-18, 00:59:05,VALID,1000.16,VALID,0,VALID,80.1568,VALID,0,VALID,24.4233,VALID,134,VALID,1.3125,
2012-08-18, 01:00:05,VALID,1000.14,VALID,0,VALID,80.2483,VALID,0,VALID,24.3842,VALID,134,VALID,0.901953,
2012-08-18, 01:01:05,VALID,1000.15,VALID,0,VALID,80.4543,VALID,0,VALID,24.3452,VALID,134,VALID,1.04258,
2012-08-18, 01:02:05,VALID,1000.14,VALID,0,VALID,80.5993,VALID,0,VALID,24.3062,VALID,136,VALID,0.971875,
2012-08-18, 01:03:05,VALID,1000.13,VALID,0,VALID,80.7595,VALID,0,VALID,24.2848,VALID,138,VALID,0.539844,
2012-08-18, 01:04:05,VALID,1000.13,VALID,0,VALID,80.8587,VALID,0,VALID,24.2866,VALID,162,VALID,0.573828,
2012-08-18, 01:05:05,VALID,1000.1,VALID,0,VALID,80.9579,VALID,0,VALID,24.2866,VALID,162,VALID,0.535156,
2012-08-18, 01:06:05,VALID,1000.1,VALID,0,VALID,80.9503,VALID,0,VALID,24.2653,VALID,162,VALID,0.475,
2012-08-18, 01:07:05,VALID,1000.12,VALID,0,VALID,80.9121,VALID,0,VALID,24.2866,VALID,136,VALID,0.703125,
2012-08-18, 01:08:05,VALID,1000.12,VALID,0,VALID,80.7824,VALID,0,VALID,24.2848,VALID,136,VALID,0.923047,
2012-08-18, 01:09:05,VALID,1000.09,VALID,0,VALID,80.6603,VALID,0,VALID,24.3043,VALID,132,VALID,0.916016,
2012-08-18, 01:10:05,VALID,1000.08,VALID,0,VALID,80.5993,VALID,0,VALID,24.3257,VALID,124,VALID,0.946094,
2012-08-18, 01:11:05,VALID,1000.11,VALID,0,VALID,80.4925,VALID,0,VALID,24.3257,VALID,123,VALID,0.705078,
2012-08-18, 01:12:05,VALID,1000.06,VALID,0,VALID,80.4391,VALID,0,VALID,24.3257,VALID,123,VALID,0.513281,
2012-08-18, 01:13:05,VALID,1000.08,VALID,0,VALID,80.4925,VALID,0,VALID,24.3062,VALID,123,VALID,0.693359,
2012-08-18, 01:14:05,VALID,1000.05,VALID,0,VALID,80.7214,VALID,0,VALID,24.2476,VALID,123,VALID,0.630078,
2012-08-18, 01:15:05,VALID,1000.03,VALID,0,VALID,81.0037,VALID,0,VALID,24.2067,VALID,94,VALID,0.813281,
2012-08-18, 01:16:05,VALID,1000.03,VALID,0,VALID,81.0952,VALID,0,VALID,24.2281,VALID,114,VALID,0.755469,
2012-08-18, 01:17:05,VALID,1000.04,VALID,0,VALID,80.9579,VALID,0,VALID,24.2263,VALID,116,VALID,0.5875,
2012-08-18, 01:18:05,VALID,1000.06,VALID,0,VALID,80.8892,VALID,0,VALID,24.2281,VALID,116,VALID,0.983203,
2012-08-18, 01:19:05,VALID,1000.04,VALID,0,VALID,80.9045,VALID,0,VALID,24.2476,VALID,116,VALID,1.03789,
2012-08-18, 01:20:05,VALID,1000.02,VALID,0,VALID,80.7366,VALID,0,VALID,24.2866,VALID,116,VALID,1.08047,
2012-08-18, 01:21:05,VALID,1000.04,VALID,0,VALID,80.5764,VALID,0,VALID,24.3043,VALID,116,VALID,1.22852,
2012-08-18, 01:22:05,VALID,1000.02,VALID,0,VALID,80.2865,VALID,0,VALID,24.3238,VALID,117,VALID,1.46094,
2012-08-18, 01:23:05,VALID,1000.02,VALID,0,VALID,80.1568,VALID,0,VALID,24.3257,VALID,121,VALID,1.16328,
2012-08-18, 01:24:05,VALID,1000.01,VALID,0,VALID,80.4162,VALID,0,VALID,24.2458,VALID,129,VALID,0.930078,
2012-08-18, 01:25:05,VALID,1000.02,VALID,0,VALID,80.729,VALID,0,VALID,24.2281,VALID,129,VALID,0.626172,
2012-08-18, 01:26:05,VALID,999.973,VALID,0,VALID,80.9198,VALID,0,VALID,24.1891,VALID,129,VALID,0.686328,
2012-08-18, 01:27:05,VALID,1000.03,VALID,0,VALID,81.1029,VALID,0,VALID,24.1677,VALID,129,VALID,1.01133,
2012-08-18, 01:28:05,VALID,999.988,VALID,0,VALID,81.0342,VALID,0,VALID,24.1891,VALID,147,VALID,1.27148,
2012-08-18, 01:29:05,VALID,999.981,VALID,0,VALID,80.9503,VALID,0,VALID,24.2476,VALID,139,VALID,1.3543,
2012-08-18, 01:30:05,VALID,999.996,VALID,0,VALID,80.8663,VALID,0,VALID,24.2476,VALID,139,VALID,1.63359,
2012-08-18, 01:31:05,VALID,999.973,VALID,0,VALID,80.7366,VALID,0,VALID,24.2671,VALID,143,VALID,1.80664,
2012-08-18, 01:32:05,VALID,999.978,VALID,0,VALID,80.5612,VALID,0,VALID,24.3062,VALID,141,VALID,1.56133,
2012-08-18, 01:33:05,VALID,999.959,VALID,0,VALID,80.5306,VALID,0,VALID,24.3062,VALID,137,VALID,1.63359,
2012-08-18, 01:34:05,VALID,999.943,VALID,0,VALID,80.5383,VALID,0,VALID,24.2671,VALID,133,VALID,1.85547,
2012-08-18, 01:35:05,VALID,999.964,VALID,0,VALID,80.8053,VALID,0,VALID,24.2281,VALID,135,VALID,1.98789,
2012-08-18, 01:36:05,VALID,999.933,VALID,0,VALID,81.0113,VALID,0,VALID,24.2086,VALID,128,VALID,1.76406,
2012-08-18, 01:37:05,VALID,999.945,VALID,0,VALID,81.0037,VALID,0,VALID,24.2086,VALID,127,VALID,2.14336,
2012-08-18, 01:38:05,VALID,999.937,VALID,0,VALID,80.9808,VALID,0,VALID,24.2086,VALID,128,VALID,1.75078,
2012-08-18, 01:39:05,VALID,999.885,VALID,0,VALID,80.9121,VALID,0,VALID,24.2495,VALID,125,VALID,1.73789,
2012-08-18, 01:40:05,VALID,999.873,VALID,0,VALID,80.6527,VALID,0,VALID,24.2671,VALID,124,VALID,1.76758,
2012-08-18, 01:41:05,VALID,999.894,VALID,0,VALID,80.3857,VALID,0,VALID,24.2866,VALID,128,VALID,1.64688,
2012-08-18, 01:42:05,VALID,999.9,VALID,0,VALID,80.3704,VALID,0,VALID,24.3062,VALID,128,VALID,1.54062,
2012-08-18, 01:43:05,VALID,999.896,VALID,0,VALID,80.3933,VALID,0,VALID,24.2848,VALID,131,VALID,1.58672,
2012-08-18, 01:44:05,VALID,999.883,VALID,0,VALID,80.6375,VALID,0,VALID,24.2671,VALID,121,VALID,1.55273,
2012-08-18, 01:45:05,VALID,999.87,VALID,0,VALID,80.9121,VALID,0,VALID,24.2281,VALID,110,VALID,1.63398,
2012-08-18, 01:46:05,VALID,999.88,VALID,0,VALID,81.1257,VALID,0,VALID,24.1891,VALID,118,VALID,1.83516,
2012-08-18, 01:47:05,VALID,999.885,VALID,0,VALID,81.4004,VALID,0,VALID,24.1305,VALID,117,VALID,1.62109,
2012-08-18, 01:48:05,VALID,999.859,VALID,0,VALID,81.553,VALID,0,VALID,24.0915,VALID,121,VALID,1.54961,
2012-08-18, 01:49:05,VALID,999.856,VALID,0,VALID,81.698,VALID,0,VALID,24.0525,VALID,125,VALID,1.39023,
2012-08-18, 01:50:05,VALID,999.861,VALID,0,VALID,81.6674,VALID,0,VALID,24.0329,VALID,132,VALID,1.43945,
2012-08-18, 01:51:05,VALID,999.851,VALID,0,VALID,81.5149,VALID,0,VALID,24.0525,VALID,134,VALID,1.44727,
2012-08-18, 01:52:05,VALID,999.836,VALID,0,VALID,81.4615,VALID,0,VALID,24.072,VALID,136,VALID,1.33281,
2012-08-18, 01:53:05,VALID,999.815,VALID,0,VALID,81.4233,VALID,0,VALID,24.0525,VALID,132,VALID,1.11641,
2012-08-18, 01:54:05,VALID,999.794,VALID,0,VALID,81.202,VALID,0,VALID,24.0311,VALID,123,VALID,1.12539,
2012-08-18, 01:55:05,VALID,999.786,VALID,0,VALID,81.1944,VALID,0,VALID,24.0116,VALID,134,VALID,1.00625,
2012-08-18, 01:56:05,VALID,999.784,VALID,0,VALID,81.2402,VALID,0,VALID,24.0134,VALID,134,VALID,0.920313,
2012-08-18, 01:57:05,VALID,999.795,VALID,0,VALID,81.141,VALID,0,VALID,24.0329,VALID,138,VALID,1.17031,
2012-08-18, 01:58:05,VALID,999.764,VALID,0,VALID,81.0723,VALID,0,VALID,24.0134,VALID,141,VALID,1.1043,
2012-08-18, 01:59:05,VALID,999.735,VALID,0,VALID,81.0495,VALID,0,VALID,23.9921,VALID,141,VALID,0.782031,
2012-08-18, 02:00:05,VALID,999.766,VALID,0,VALID,80.9426,VALID,0,VALID,23.9939,VALID,143,VALID,1.24922,
2012-08-18, 02:01:05,VALID,999.7,VALID,0,VALID,81.0266,VALID,0,VALID,23.9744,VALID,127,VALID,1.09063,
2012-08-18, 02:02:05,VALID,999.73,VALID,0,VALID,81.0876,VALID,0,VALID,23.9744,VALID,143,VALID,1.63242,
2012-08-18, 02:03:05,VALID,999.718,VALID,0,VALID,81.0647,VALID,0,VALID,23.9744,VALID,139,VALID,1.28516,
2012-08-18, 02:04:05,VALID,999.745,VALID,0,VALID,81.1868,VALID,0,VALID,23.9549,VALID,142,VALID,1.10078,
2012-08-18, 02:05:05,VALID,999.764,VALID,0,VALID,81.2478,VALID,0,VALID,23.9549,VALID,144,VALID,1.25781,
2012-08-18, 02:06:05,VALID,999.74,VALID,0,VALID,81.286,VALID,0,VALID,23.9744,VALID,152,VALID,1.38008,
2012-08-18, 02:07:05,VALID,999.742,VALID,0,VALID,81.1639,VALID,0,VALID,24.0134,VALID,154,VALID,1.26563,
2012-08-18, 02:08:05,VALID,999.738,VALID,0,VALID,80.996,VALID,0,VALID,24.0329,VALID,157,VALID,1.10977,
2012-08-18, 02:09:05,VALID,999.749,VALID,0,VALID,80.8053,VALID,0,VALID,24.0329,VALID,148,VALID,1.38555,
2012-08-18, 02:10:05,VALID,999.726,VALID,0,VALID,80.6603,VALID,0,VALID,24.0738,VALID,148,VALID,1.31562,
2012-08-18, 02:11:05,VALID,999.726,VALID,0,VALID,80.6298,VALID,0,VALID,24.0525,VALID,147,VALID,1.54609,
2012-08-18, 02:12:05,VALID,999.714,VALID,0,VALID,80.7366,VALID,0,VALID,24.0329,VALID,148,VALID,1.27813,
2012-08-18, 02:13:05,VALID,999.691,VALID,0,VALID,80.8053,VALID,0,VALID,24.0134,VALID,146,VALID,1.16641,
2012-08-18, 02:14:05,VALID,999.718,VALID,0,VALID,80.8511,VALID,0,VALID,23.9744,VALID,148,VALID,0.889063,
2012-08-18, 02:15:05,VALID,999.693,VALID,0,VALID,81.0113,VALID,0,VALID,23.9549,VALID,140,VALID,1.35195,
2012-08-18, 02:16:05,VALID,999.72,VALID,0,VALID,81.1715,VALID,0,VALID,23.9159,VALID,147,VALID,1.26055,
2012-08-18, 02:17:05,VALID,999.732,VALID,0,VALID,81.3394,VALID,0,VALID,23.8963,VALID,146,VALID,1.5168,
2012-08-18, 02:18:05,VALID,999.748,VALID,0,VALID,81.347,VALID,0,VALID,23.8963,VALID,136,VALID,1.03828,
2012-08-18, 02:19:05,VALID,999.73,VALID,0,VALID,81.2555,VALID,0,VALID,23.8963,VALID,121,VALID,0.790234,
2012-08-18, 02:20:05,VALID,999.706,VALID,0,VALID,81.347,VALID,0,VALID,23.8165,VALID,127,VALID,0.989844,
2012-08-18, 02:21:05,VALID,999.688,VALID,0,VALID,81.3394,VALID,0,VALID,23.8573,VALID,107,VALID,0.636719,
2012-08-18, 02:22:05,VALID,999.68,VALID,0,VALID,81.3165,VALID,0,VALID,23.8573,VALID,132,VALID,0.784766,
2012-08-18, 02:23:05,VALID,999.691,VALID,0,VALID,81.2936,VALID,0,VALID,23.8165,VALID,139,VALID,1.13437,
2012-08-18, 02:24:05,VALID,999.715,VALID,0,VALID,81.2402,VALID,0,VALID,23.8555,VALID,123,VALID,0.725781,
2012-08-18, 02:25:05,VALID,999.707,VALID,0,VALID,81.2173,VALID,0,VALID,23.8768,VALID,127,VALID,1.23516,
2012-08-18, 02:26:05,VALID,999.696,VALID,0,VALID,81.141,VALID,0,VALID,23.8768,VALID,118,VALID,0.607422,
2012-08-18, 02:27:05,VALID,999.722,VALID,0,VALID,81.1486,VALID,0,VALID,23.8555,VALID,118,VALID,0.273828,
2012-08-18, 02:28:05,VALID,999.705,VALID,0,VALID,81.1715,VALID,0,VALID,23.8378,VALID,118,VALID,0.228906,
2012-08-18, 02:29:05,VALID,999.738,VALID,0,VALID,81.2936,VALID,0,VALID,23.7988,VALID,118,VALID,0.198047,
2012-08-18, 02:30:05,VALID,999.739,VALID,0,VALID,81.4157,VALID,0,VALID,23.7597,VALID,118,VALID,0.589063,
2012-08-18, 02:31:05,VALID,999.742,VALID,0,VALID,81.6446,VALID,0,VALID,23.7012,VALID,122,VALID,0.963672,
2012-08-18, 02:32:05,VALID,999.724,VALID,0,VALID,81.5912,VALID,0,VALID,23.6817,VALID,140,VALID,0.994531,
2012-08-18, 02:33:05,VALID,999.711,VALID,0,VALID,81.7666,VALID,0,VALID,23.6427,VALID,133,VALID,1.51406,
2012-08-18, 02:34:05,VALID,999.695,VALID,0,VALID,81.8429,VALID,0,VALID,23.6817,VALID,134,VALID,1.44609,
2012-08-18, 02:35:05,VALID,999.693,VALID,0,VALID,81.5835,VALID,0,VALID,23.7207,VALID,125,VALID,1.21953,
2012-08-18, 02:36:05,VALID,999.685,VALID,0,VALID,81.4157,VALID,0,VALID,23.7402,VALID,127,VALID,1.17148,
2012-08-18, 02:37:05,VALID,999.717,VALID,0,VALID,81.3699,VALID,0,VALID,23.7597,VALID,127,VALID,1.20625,
2012-08-18, 02:38:05,VALID,999.701,VALID,0,VALID,81.2631,VALID,0,VALID,23.7597,VALID,118,VALID,1.0082,
2012-08-18, 02:39:05,VALID,999.706,VALID,0,VALID,81.4233,VALID,0,VALID,23.7207,VALID,135,VALID,1.2832,
2012-08-18, 02:40:05,VALID,999.704,VALID,0,VALID,81.5225,VALID,0,VALID,23.7012,VALID,129,VALID,1.00117,
2012-08-18, 02:41:05,VALID,999.666,VALID,0,VALID,81.6369,VALID,0,VALID,23.6817,VALID,132,VALID,0.713672,
2012-08-18, 02:42:05,VALID,999.659,VALID,0,VALID,81.6064,VALID,0,VALID,23.6604,VALID,132,VALID,0.551953,
2012-08-18, 02:43:05,VALID,999.614,VALID,0,VALID,81.965,VALID,0,VALID,23.6232,VALID,70,VALID,0.511719,
2012-08-18, 02:44:04,VALID,999.646,VALID,0,VALID,82.3617,VALID,0,VALID,23.5646,VALID,70,VALID,0.346094,
2012-08-18, 02:45:04,VALID,999.635,VALID,0,VALID,82.7661,VALID,0,VALID,23.4671,VALID,70,VALID,0.522266,
2012-08-18, 02:46:04,VALID,999.64,VALID,0,VALID,83.3155,VALID,0,VALID,23.389,VALID,135,VALID,1.04453,
2012-08-18, 02:47:04,VALID,999.648,VALID,0,VALID,83.6969,VALID,0,VALID,23.35,VALID,128,VALID,0.765625,
2012-08-18, 02:48:04,VALID,999.644,VALID,0,VALID,83.6664,VALID,0,VALID,23.35,VALID,124,VALID,0.478516,
2012-08-18, 02:49:04,VALID,999.604,VALID,0,VALID,83.5291,VALID,0,VALID,23.35,VALID,124,VALID,0.358203,
2012-08-18, 02:50:04,VALID,999.64,VALID,0,VALID,83.5138,VALID,0,VALID,23.35,VALID,146,VALID,0.653125,
2012-08-18, 02:51:04,VALID,999.647,VALID,0,VALID,83.4528,VALID,0,VALID,23.389,VALID,151,VALID,0.627344,
2012-08-18, 02:52:04,VALID,999.627,VALID,0,VALID,83.2773,VALID,0,VALID,23.4263,VALID,167,VALID,1.1,
2012-08-18, 02:53:04,VALID,999.643,VALID,0,VALID,83.0332,VALID,0,VALID,23.5256,VALID,158,VALID,0.787109,
2012-08-18, 02:54:04,VALID,999.638,VALID,0,VALID,82.4838,VALID,0,VALID,23.5451,VALID,132,VALID,0.890234,
2012-08-18, 02:55:04,VALID,999.649,VALID,0,VALID,82.1023,VALID,0,VALID,23.5256,VALID,132,VALID,0.648828,
2012-08-18, 02:56:04,VALID,999.65,VALID,0,VALID,82.2473,VALID,0,VALID,23.4866,VALID,140,VALID,0.890234,
2012-08-18, 02:57:04,VALID,999.603,VALID,0,VALID,82.5067,VALID,0,VALID,23.4671,VALID,144,VALID,0.646875,
2012-08-18, 02:58:04,VALID,999.597,VALID,0,VALID,82.3541,VALID,0,VALID,23.4475,VALID,140,VALID,0.883203,
2012-08-18, 02:59:04,VALID,999.615,VALID,0,VALID,82.4228,VALID,0,VALID,23.4085,VALID,125,VALID,0.712891,
2012-08-18, 03:00:04,VALID,999.594,VALID,0,VALID,82.5449,VALID,0,VALID,23.3305,VALID,105,VALID,0.536328,
2012-08-18, 03:01:04,VALID,999.596,VALID,0,VALID,82.8195,VALID,0,VALID,23.2117,VALID,105,VALID,0.146875,
2012-08-18, 03:02:04,VALID,999.599,VALID,0,VALID,83.2849,VALID,0,VALID,23.1336,VALID,105,VALID,0.104297,
2012-08-18, 03:03:04,VALID,999.594,VALID,0,VALID,83.8953,VALID,0,VALID,23.1159,VALID,112,VALID,0.703516,
2012-08-18, 03:04:04,VALID,999.599,VALID,0,VALID,84.3378,VALID,0,VALID,23.1159,VALID,123,VALID,0.913281,
2012-08-18, 03:05:04,VALID,999.581,VALID,0,VALID,84.3378,VALID,0,VALID,23.1159,VALID,117,VALID,0.995313,
2012-08-18, 03:06:04,VALID,999.576,VALID,0,VALID,84.0708,VALID,0,VALID,23.1159,VALID,113,VALID,0.919531,
2012-08-18, 03:07:04,VALID,999.631,VALID,0,VALID,84.5438,VALID,0,VALID,23.1354,VALID,134,VALID,1.41406,
2012-08-18, 03:08:04,VALID,999.607,VALID,0,VALID,84.4904,VALID,0,VALID,23.2329,VALID,148,VALID,1.48047,
2012-08-18, 03:09:04,VALID,999.581,VALID,0,VALID,83.9029,VALID,0,VALID,23.3695,VALID,147,VALID,1.59805,
2012-08-18, 03:10:04,VALID,999.582,VALID,0,VALID,83.0942,VALID,0,VALID,23.4866,VALID,149,VALID,1.61445,
2012-08-18, 03:11:04,VALID,999.579,VALID,0,VALID,82.5983,VALID,0,VALID,23.5646,VALID,156,VALID,1.3207,
2012-08-18, 03:12:04,VALID,999.553,VALID,0,VALID,82.3007,VALID,0,VALID,23.5841,VALID,154,VALID,1.02227,
2012-08-18, 03:13:04,VALID,999.543,VALID,0,VALID,82.1405,VALID,0,VALID,23.6036,VALID,154,VALID,1.03437,
2012-08-18, 03:14:04,VALID,999.532,VALID,0,VALID,82.0642,VALID,0,VALID,23.6036,VALID,156,VALID,1.43594,
2012-08-18, 03:15:04,VALID,999.538,VALID,0,VALID,81.9574,VALID,0,VALID,23.6622,VALID,151,VALID,1.71563,
2012-08-18, 03:16:04,VALID,999.531,VALID,0,VALID,81.6751,VALID,0,VALID,23.7012,VALID,142,VALID,1.56602,
2012-08-18, 03:17:04,VALID,999.535,VALID,0,VALID,81.4691,VALID,0,VALID,23.7402,VALID,145,VALID,1.69766,
2012-08-18, 03:18:04,VALID,999.522,VALID,0,VALID,81.2326,VALID,0,VALID,23.7597,VALID,143,VALID,1.30508,
2012-08-18, 03:19:04,VALID,999.523,VALID,0,VALID,81.2478,VALID,0,VALID,23.7402,VALID,140,VALID,1.29961,
2012-08-18, 03:20:04,VALID,999.531,VALID,0,VALID,81.3165,VALID,0,VALID,23.7012,VALID,142,VALID,1.33789,
2012-08-18, 03:21:04,VALID,999.524,VALID,0,VALID,81.5149,VALID,0,VALID,23.6817,VALID,135,VALID,1.55,
2012-08-18, 03:22:04,VALID,999.494,VALID,0,VALID,81.4843,VALID,0,VALID,23.6799,VALID,133,VALID,1.56094,
2012-08-18, 03:23:04,VALID,999.468,VALID,0,VALID,81.4843,VALID,0,VALID,23.6622,VALID,137,VALID,1.32969,
2012-08-18, 03:24:04,VALID,999.458,VALID,0,VALID,81.5072,VALID,0,VALID,23.6214,VALID,121,VALID,1.29492,
2012-08-18, 03:25:04,VALID,999.458,VALID,0,VALID,81.7972,VALID,0,VALID,23.6036,VALID,134,VALID,1.49883,
2012-08-18, 03:26:04,VALID,999.443,VALID,0,VALID,81.8353,VALID,0,VALID,23.6232,VALID,123,VALID,1.39453,
2012-08-18, 03:27:04,VALID,999.432,VALID,0,VALID,81.6064,VALID,0,VALID,23.6036,VALID,123,VALID,1.19375,
2012-08-18, 03:28:04,VALID,999.446,VALID,0,VALID,81.6522,VALID,0,VALID,23.6036,VALID,122,VALID,1.51719,
2012-08-18, 03:29:04,VALID,999.441,VALID,0,VALID,81.5988,VALID,0,VALID,23.6036,VALID,127,VALID,2.09922,
2012-08-18, 03:30:04,VALID,999.452,VALID,0,VALID,81.6827,VALID,0,VALID,23.6232,VALID,124,VALID,1.96289,
2012-08-18, 03:31:04,VALID,999.456,VALID,0,VALID,81.6598,VALID,0,VALID,23.6214,VALID,122,VALID,1.68359,
2012-08-18, 03:32:04,VALID,999.456,VALID,0,VALID,81.7209,VALID,0,VALID,23.6232,VALID,120,VALID,1.48906,
2012-08-18, 03:33:04,VALID,999.481,VALID,0,VALID,81.7285,VALID,0,VALID,23.5841,VALID,129,VALID,1.3082,
2012-08-18, 03:34:04,VALID,999.503,VALID,0,VALID,81.9498,VALID,0,VALID,23.5646,VALID,125,VALID,1.48438,
2012-08-18, 03:35:04,VALID,999.497,VALID,0,VALID,81.9574,VALID,0,VALID,23.5451,VALID,122,VALID,0.935938,
2012-08-18, 03:36:04,VALID,999.501,VALID,0,VALID,82.0489,VALID,0,VALID,23.5238,VALID,131,VALID,1.17656,
2012-08-18, 03:37:04,VALID,999.52,VALID,0,VALID,81.8506,VALID,0.104696,VALID,23.5823,VALID,119,VALID,0.979297,
2012-08-18, 03:38:04,VALID,999.523,VALID,0,VALID,81.7132,VALID,0,VALID,23.6019,VALID,126,VALID,1.56953,
2012-08-18, 03:39:04,VALID,999.573,VALID,0,VALID,81.4233,VALID,0,VALID,23.6427,VALID,129,VALID,1.24766,
2012-08-18, 03:40:04,VALID,999.533,VALID,0,VALID,81.4309,VALID,0,VALID,23.6019,VALID,127,VALID,1.02148,
2012-08-18, 03:41:04,VALID,999.549,VALID,0,VALID,81.5912,VALID,0,VALID,23.5823,VALID,120,VALID,1.01563,
2012-08-18, 03:42:04,VALID,999.574,VALID,0,VALID,81.6598,VALID,0.104696,VALID,23.6036,VALID,136,VALID,1.25508,
2012-08-18, 03:43:04,VALID,999.585,VALID,0,VALID,81.4691,VALID,0.104696,VALID,23.6036,VALID,138,VALID,1.1043,
2012-08-18, 03:44:04,VALID,999.576,VALID,0,VALID,81.3546,VALID,0,VALID,23.5628,VALID,127,VALID,0.934766,
2012-08-18, 03:45:04,VALID,999.584,VALID,0,VALID,81.4309,VALID,0,VALID,23.5841,VALID,130,VALID,1.15313,